This demonstration page uses our WeatherBlox Daily Observations layout. Learn more.

Left ArrowRight Arrow

Hourly Observations for July 12, 2021

Temp ( °F °C ) Dew Point ( °F °C ) Humidity (%) Winds ( mph kmh ) Pressure ( in mb ) Visibility ( mi km ) Precip ( " mm )
12:56 am 00:56 Clear 65 18.3 61 16.1 87 87 Calm 30.08 1019 10 16 0.00 0.00
1:56 am 01:56 Mostly Clear 63 17.2 59 15 87 87 Calm 30.07 1018 10 16 0.00 0.00
2:56 am 02:56 Clear 61 16.1 58 14.4 90 90 WNW 6 9 30.06 1018 10 16 0.00 0.00
3:56 am 03:56 Clear 60 15.6 57 13.9 90 90 NW 6 9 30.06 1018 10 16 0.00 0.00
4:56 am 04:56 Clear 59 15 56 13.3 90 90 WNW 5 7 30.06 1018 10 16 0.00 0.00
5:56 am 05:56 Clear 57 13.9 55 12.8 93 93 NW 3 6 30.06 1018 10 16 0.00 0.00
6:56 am 06:56 Sunny 56 13.3 54 12.2 93 93 Calm 30.07 1018 10 16 0.00 0.00
7:56 am 07:56 Sunny 62 16.7 58 14.4 86 86 Calm 30.08 1019 10 16 0.00 0.00
8:56 am 08:56 Sunny 68 20 61 16.1 78 78 Calm 30.08 1019 10 16 0.00 0.00
9:56 am 09:56 Sunny 72 22.2 59 15 64 64 W 5 7 30.08 1019 10 16 0.00 0.00
10:56 am 10:56 Sunny 75 23.9 60 15.6 60 60 S 8 13 30.08 1019 10 16 0.00 0.00
11:56 am 11:56 Mostly Sunny 75 23.9 58 14.4 55 55 VRB 3 6 30.08 1019 10 16 0.00 0.00
12:56 pm 12:56 Sunny 78 25.6 57 13.9 48 48 W 8 13 30.07 1018 10 16 0.00 0.00
1:56 pm 13:56 Sunny 78 25.6 59 15 52 52 S 5 7 30.06 1018 10 16 0.00 0.00
2:56 pm 14:56 Sunny 79 26.1 60 15.6 52 52 SSE 7 11 30.05 1018 10 16 0.00 0.00
3:56 pm 15:56 Sunny 80 26.7 58 14.4 47 47 S 8 13 30.03 1017 9 14 0.00 0.00
4:56 pm 16:56 Sunny 80 26.7 56 13.3 44 44 SSW 5 7 30.03 1017 10 16 0.00 0.00
5:56 pm 17:56 Sunny 80 26.7 56 13.3 44 44 SSW 5 7 30.02 1017 10 16 0.00 0.00
6:56 pm 18:56 Sunny 80 26.7 59 15 49 49 SE 8 13 30.00 1016 10 16 0.00 0.00
7:56 pm 19:56 Sunny 77 25 63 17.2 62 62 SE 5 7 30.00 1016 10 16 0.00 0.00
8:56 pm 20:56 Sunny 72 22.2 65 18.3 79 79 ESE 8 13 30.01 1016 10 16 0.00 0.00
9:56 pm 21:56 Clear 69 20.6 63 17.2 81 81 ESE 7 11 30.01 1016 10 16 0.00 0.00
10:56 pm 22:56 Clear 66 18.9 62 16.7 87 87 SE 7 11 30.03 1017 10 16 0.00 0.00
11:56 pm 23:56 Clear 65 18.3 61 16.1 87 87 SE 9 15 30.04 1017 10 16 0.00 0.00

Powered by AerisWeather